"Time","Temp","Dewpoint","Humidity","Pressure","Direction","Speed","Gust","Precip","PrecipRate"
"00:04:57","75.1","69.9","83.9","30.22","136","1.9","5","0.00","0.00"
"00:09:57","75","69.8","84","30.22","140","1.6","3.5","0.00","0.00"
"00:14:56","74.8","69.6","84","30.22","140","1","3.5","0.00","0.00"
"00:19:59","74.7","69.7","84.4","30.21","133","1.1","4","0.00","0.00"
"00:24:58","74.6","69.8","85","30.21","132","0.3","2.3","0.00","0.00"
"00:29:57","74.5","69.7","85","30.22","132","0.2","2.3","0.00","0.00"
"00:34:56","74.4","69.6","85","30.22","132","0.6","2.3","0.00","0.00"
"00:39:56","74.3","69.5","85","30.22","132","0.7","3","0.00","0.00"
"00:44:58","74.2","69.4","85.1","30.22","132","1.1","4","0.00","0.00"
"00:49:57","74.1","69.6","86","30.22","132","0.8","3.5","0.00","0.00"
"00:54:56","74","69.5","86","30.22","132","0.8","3","0.00","0.00"
"00:59:59","73.8","69.3","86","30.22","132","1","4","0.00","0.00"
"01:04:57","73.7","69.2","86","30.22","132","0.7","3.5","0.00","0.00"
"01:09:56","73.7","69.4","86.6","30.22","132","1.5","4","0.00","0.00"
"01:14:56","73.6","69.5","87","30.22","133","1.5","4","0.00","0.00"
"01:19:58","73.5","69.4","87.1","30.21","147","1.2","4","0.00","0.00"
"01:24:57","73.4","69.6","88","30.21","151","1.6","3.5","0.00","0.00"
"01:29:56","73.3","69.5","88","30.21","149","1.5","4","0.00","0.00"
"01:34:59","73.3","69.5","88","30.21","145","1.3","3.5","0.00","0.00"
"01:39:59","73.2","69.4","88","30.21","145","1.7","4","0.00","0.00"
"01:44:58","73.1","69.3","88","30.21","146","0.8","3.5","0.00","0.00"
"01:49:56","73","69.2","88","30.21","149","1.4","5","0.00","0.00"
"01:54:59","73","69.2","88","30.21","155","1.6","4.6","0.00","0.00"
"01:59:58","72.9","69.5","88.9","30.21","156","1.2","3.5","0.00","0.00"
"02:04:56","72.9","69.5","89","30.21","156","0.7","2.3","0.00","0.00"
"02:09:59","72.8","69.4","89","30.21","156","0.9","3.5","0.00","0.00"
"02:14:59","72.8","69.4","89","30.21","156","1.1","3.5","0.00","0.00"
"02:19:57","72.7","69.5","89.8","30.21","156","1.5","4","0.00","0.00"
"02:24:56","72.6","69.5","90","30.21","156","0.9","4","0.00","0.00"
"02:29:59","72.6","69.5","90","30.21","149","1.2","3.5","0.00","0.00"
"02:34:58","72.6","69.5","90","30.20","152","1.6","5","0.00","0.00"
"02:39:58","72.5","69.4","90","30.20","154","1.8","4","0.00","0.00"
"02:44:57","72.5","69.4","90.2","30.20","157","1.4","4","0.00","0.00"
"02:49:59","72.5","69.7","91","30.20","157","2.1","4","0.00","0.00"
"02:54:58","72.5","69.7","91","30.20","153","1.7","3.5","0.00","0.00"
"02:59:57","72.4","69.6","91","30.20","153","0.7","3.5","0.00","0.00"
"03:04:56","72.4","69.6","91","30.19","153","1.1","4","0.00","0.00"
"03:09:59","72.4","69.6","91","30.19","153","1.1","3.5","0.00","0.00"
"03:14:59","72.4","69.6","91","30.19","153","0.9","2.3","0.00","0.00"
"03:19:58","72.3","69.5","91","30.19","153","1","3.5","0.00","0.00"
"03:24:57","72.3","69.6","91.3","30.19","153","1.4","3.5","0.00","0.00"
"03:29:56","72.3","69.8","92","30.19","153","1.1","4","0.00","0.00"
"03:34:59","72.3","69.8","92","30.19","153","0.4","3.5","0.00","0.00"
"03:39:56","72.2","69.7","92","30.19","153","0","0","0.00","0.00"
"03:44:59","72.2","69.7","92","30.19","153","0","0","0.00","0.00"
"03:49:58","72.1","69.6","92","30.19","153","0","0","0.00","0.00"
"03:54:57","72.1","69.6","92","30.19","153","0","0","0.00","0.00"
"03:59:56","72.1","69.6","92","30.19","153","0","0","0.00","0.00"
"04:04:58","72","69.5","92","30.19","153","0","0","0.00","0.00"
"04:09:58","72","69.5","92","30.19","153","0","0","0.00","0.00"
"04:14:58","72","69.6","92.4","30.19","153","0","0","0.00","0.00"
"04:19:57","72","69.6","92.1","30.19","153","0","0","0.00","0.00"
"04:24:56","72","69.6","92.3","30.19","153","0","0","0.00","0.00"
"04:29:56","72","69.7","92.5","30.19","153","0","0","0.00","0.00"
"04:34:59","71.9","69.8","93","30.19","153","0","0","0.00","0.00"
"04:39:59","71.9","69.8","93","30.19","153","0","0","0.00","0.00"
"04:44:58","71.9","69.8","93","30.19","153","0","0","0.00","0.00"
"04:49:57","71.8","69.7","93","30.19","153","0","0","0.00","0.00"
"04:54:56","71.7","69.6","93","30.19","153","0","0","0.00","0.00"
"04:59:59","71.7","69.6","93","30.19","153","0","0","0.00","0.00"
"05:04:58","71.7","69.7","93.3","30.19","153","0","1.2","0.00","0.00"
"05:09:57","71.6","69.8","93.8","30.19","153","0","0","0.00","0.00"
"05:14:57","71.6","69.8","94","30.19","153","0","0","0.00","0.00"
"05:19:57","71.6","69.8","94","30.19","153","0","0","0.00","0.00"
"05:24:56","71.5","69.7","94","30.19","153","0","0","0.00","0.00"
"05:29:59","71.5","69.7","94","30.19","153","0","0","0.00","0.00"
"05:34:57","71.4","69.6","94","30.19","153","0","0","0.00","0.00"
"05:39:58","71.4","69.6","94","30.19","153","0","0","0.00","0.00"
"05:44:57","71.3","69.5","94","30.19","153","0","0","0.00","0.00"
"05:49:56","71.3","69.5","94","30.19","153","0","0","0.00","0.00"
"05:54:59","71.3","69.5","94","30.19","153","0","0","0.00","0.00"
"05:59:58","71.2","69.4","94","30.20","153","0","0","0.00","0.00"
"06:04:56","71.1","69.3","94","30.20","153","0","0","0.00","0.00"
"06:09:57","71","69.2","94","30.20","153","0","0","0.00","0.00"
"06:14:57","70.9","69.1","94","30.21","153","0","0","0.00","0.00"
"06:19:56","70.8","69","94","30.21","153","0","0","0.00","0.00"
"06:24:59","70.7","68.9","94","30.21","153","0","0","0.00","0.00"
"06:29:58","70.6","69.1","94.7","30.21","153","0","0","0.00","0.00"
"06:34:58","70.7","69.2","95","30.21","153","0","0","0.00","0.00"
"06:39:58","70.8","69.3","95","30.21","153","0","0","0.00","0.00"
"06:44:57","70.9","69.4","95","30.21","153","0","0","0.00","0.00"
"06:49:56","70.9","69.4","95","30.21","153","0","0","0.00","0.00"
"06:54:59","70.9","69.4","95","30.21","153","0","0","0.00","0.00"
"06:59:58","70.9","69.4","95","30.22","153","0","0","0.00","0.00"
"07:04:56","71","69.5","95","30.22","153","0","0","0.00","0.00"
"07:09:55","71","69.7","95.5","30.22","153","0","0","0.00","0.00"
"07:14:56","71.1","69.9","96","30.22","153","0","0","0.00","0.00"
"07:19:58","71.2","70","95.9","30.22","153","0","0","0.00","0.00"
"07:24:57","71.3","69.8","95","30.22","153","0","0","0.00","0.00"
"07:29:56","71.4","69.9","95","30.23","153","0","0","0.00","0.00"
"07:34:59","71.5","70","95","30.23","153","0","0","0.00","0.00"
"07:39:58","71.6","70.3","95.7","30.23","153","0","0","0.00","0.00"
"07:44:57","71.7","70.5","96","30.23","154","0.8","4","0.00","0.00"
"07:49:59","71.8","70.3","95","30.22","155","1.4","3.5","0.00","0.00"
"07:54:58","71.9","70.4","95.2","30.22","158","1.1","4","0.00","0.00"
"07:59:57","72.1","70.6","95","30.22","165","1.8","4","0.00","0.00"
"08:04:59","72.3","70.9","95.4","30.22","169","0.8","3.5","0.00","0.00"
"08:09:58","72.7","71.2","95","30.22","169","0.1","2.3","0.00","0.00"
"08:14:58","73.1","71.4","94.5","30.22","168","1.6","5","0.00","0.00"
"08:19:56","73.4","71.6","93.8","30.22","184","1.2","5","0.00","0.00"
"08:24:59","73.8","71.6","92.8","30.22","179","1.2","5","0.00","0.00"
"08:29:57","74.4","71.7","91.5","30.22","180","2.4","5","0.00","0.00"
"08:34:56","74.9","72.1","91","30.22","172","2.2","4","0.00","0.00"
"08:39:59","75.5","72.3","89.8","30.22","164","2.3","7","0.00","0.00"
"08:44:58","76","72.4","88.8","30.22","197","2.3","6.9","0.00","0.00"
"08:49:56","76.5","72.6","87.9","30.22","195","1.4","4","0.00","0.00"
"08:54:58","77","72.8","87","30.22","178","2.8","6","0.00","0.00"
"08:59:57","77.4","72.7","85.5","30.22","202","2.4","4.6","0.00","0.00"
"09:04:59","78","73.5","86","30.22","160","2.2","6","0.00","0.00"
"09:09:58","78.6","73.7","84.6","30.22","189","2.9","6","0.00","0.00"
"09:14:56","79.1","73.9","84.2","30.22","182","1.6","4.6","0.00","0.00"
"09:19:56","79.5","74","83.5","30.22","166","2.2","4","0.00","0.00"
"09:24:59","79.7","73.9","82.5","30.22","180","2.8","5","0.00","0.00"
"09:29:59","80","74.2","82.5","30.22","173","3.2","9.2","0.00","0.00"
"09:34:59","80.1","74.6","83.3","30.21","185","2","5","0.00","0.00"
"09:39:59","80.5","74.6","82.3","30.21","194","3.2","7","0.00","0.00"
"09:44:59","80.8","74.5","81.2","30.21","207","3.9","7","0.00","0.00"
"09:49:58","81.1","75","81.7","30.21","193","2.7","6","0.00","0.00"
"09:54:58","81.4","74.9","80.7","30.21","252","2.6","5.8","0.00","0.00"
"09:59:58","81.6","75.1","80.7","30.21","230","3.3","6","0.00","0.00"
"10:04:57","81.9","75.4","80.8","30.21","184","2.4","5.8","0.00","0.00"
"10:09:57","82.4","75.8","80.7","30.21","199","2.8","7","0.00","0.00"
"10:14:58","82.6","75.4","79","30.21","220","3.7","9.2","0.00","0.00"
"10:19:58","82.6","75.5","79.1","30.21","203","3.1","6","0.00","0.00"
"10:24:57","82.9","75.8","79.3","30.21","203","2.9","6","0.00","0.00"
"10:29:57","83.2","76.1","79.3","30.21","202","3.4","7","0.00","0.00"
"10:34:56","83.4","76","78.4","30.21","186","3.7","6.9","0.00","0.00"
"10:39:57","83.6","75.8","77.5","30.21","190","3.5","6","0.00","0.00"
"10:44:57","83.9","76.7","79","30.21","183","2.1","6","0.00","0.00"
"10:49:56","84.3","77.1","79","30.21","167","2.1","6","0.00","0.00"
"10:54:56","84.7","77.1","77.9","30.21","178","3.1","8.1","0.00","0.00"
"10:59:56","84.8","76.7","76.5","30.21","188","3.5","6","0.00","0.00"
"11:04:59","84.9","76.9","77","30.21","189","2.3","9.2","0.00","0.00"
"11:09:56","85","77","77","30.21","184","2.6","6","0.00","0.00"
"11:14:57","85.3","78","79","30.21","156","2.1","5","0.00","0.00"
"11:19:56","85.7","77.3","76.2","30.20","166","2.9","6","0.00","0.00"
"11:24:56","85.8","77.3","75.9","30.20","154","2.4","5","0.00","0.00"
"11:29:57","86.2","77.6","75.9","30.20","173","2.4","6","0.00","0.00"
"11:34:57","86.5","77.7","75.2","30.19","168","3.7","9.2","0.00","0.00"
"11:39:57","86.4","77.5","74.8","30.19","163","3.1","9.2","0.00","0.00"
"11:44:57","86.5","77.7","75","30.19","181","3.2","7","0.00","0.00"
"11:49:57","86.8","77.6","74.1","30.19","198","3.3","6","0.00","0.00"
"11:54:56","87","77.9","74.4","30.19","187","3.7","6","0.00","0.00"
"11:59:56","87.3","78.3","74.8","30.19","155","2.6","5.8","0.00","0.00"
"12:04:55","87.5","78.2","73.9","30.19","206","3.4","7","0.00","0.00"
"12:09:59","87.6","78.1","73.5","30.19","185","3.1","9.2","0.00","0.00"
"12:14:56","87.6","77.8","72.8","30.19","187","4.8","10.4","0.00","0.00"
"12:19:56","87.6","77.8","72.7","30.19","189","3.7","8.1","0.00","0.00"
"12:24:56","87.9","78.3","73.3","30.19","173","2.9","6","0.00","0.00"
"12:29:59","88.3","78.2","72.2","30.19","184","3.7","10","0.00","0.00"
"12:34:59","88.4","78.3","72.1","30.18","188","3.4","9.2","0.00","0.00"
"12:39:56","88.4","78.5","72.6","30.18","175","3.5","8","0.00","0.00"
"12:44:59","88.6","78.4","72","30.18","184","4.6","9.2","0.00","0.00"
"12:49:59","88.8","78.6","71.9","30.18","186","3.9","11","0.00","0.00"
"12:54:58","89.1","78.1","70.2","30.18","190","4.5","10.4","0.00","0.00"
"12:59:58","89.4","78.1","69.5","30.18","190","4.1","9.2","0.00","0.00"
"13:04:57","89.5","77.8","68.6","30.17","183","4.4","10.4","0.00","0.00"
"13:09:58","89.4","78.1","69.6","30.17","189","4","11.5","0.00","0.00"
"13:14:59","89.5","78.2","69.4","30.17","183","3","6","0.00","0.00"
"13:19:59","89.4","77.3","67.7","30.17","206","4.3","9","0.00","0.00"
"13:24:59","89.4","77.7","68.8","30.17","181","3.5","9.2","0.00","0.00"
"13:29:59","89.4","77.4","67.9","30.17","170","3.6","6","0.00","0.00"
"13:34:58","89","77.4","68.6","30.16","217","2.8","7","0.00","0.00"
"13:39:59","89","78.2","70.6","30.16","186","3","7","0.00","0.00"
"13:44:59","89.2","78.5","70.9","30.16","207","3.4","7","0.00","0.00"
"13:49:59","89.5","77.9","68.8","30.16","176","4.3","10.4","0.00","0.00"
"13:54:58","89.8","78.3","69","30.16","186","3.8","9.2","0.00","0.00"
"13:59:58","90.3","78.4","68.3","30.16","163","3","7","0.00","0.00"
"14:04:57","90.8","79","68.6","30.15","185","4.3","10.4","0.00","0.00"
"14:09:58","90.7","77.9","66.3","30.15","179","3.3","7","0.00","0.00"
"14:14:58","90.7","79.3","69.4","30.15","199","4","12","0.00","0.00"
"14:19:58","90.7","77.5","65.4","30.15","180","4.2","11.5","0.00","0.00"
"14:24:58","90.4","78.5","68.2","30.15","180","3.5","10.4","0.00","0.00"
"14:29:57","90.4","78.1","67.4","30.15","198","4.4","10.4","0.00","0.00"
"14:34:57","89.9","77.5","67","30.15","187","3.9","7","0.00","0.00"
"14:39:57","89.8","77.9","68.2","30.15","184","3.7","9.2","0.00","0.00"
"14:44:57","89.9","78.3","68.8","30.15","180","4.2","9.2","0.00","0.00"
"14:49:57","90.1","77.4","66.6","30.14","173","4.2","10.4","0.00","0.00"
"14:54:56","90.6","78.5","67.7","30.14","185","6","13","0.00","0.00"
"14:59:56","91","78.4","66.7","30.14","179","5.2","12","0.00","0.00"
"15:04:59","91.2","78","65.5","30.13","179","4.8","10.4","0.00","0.00"
"15:09:59","91.2","77.6","64.6","30.13","191","4.7","10.4","0.00","0.00"
"15:14:59","91.1","77.8","65.2","30.13","191","3.8","9.2","0.00","0.00"
"15:19:59","90.9","78.2","66.4","30.13","162","3.1","8.1","0.00","0.00"
"15:24:59","90.8","78.3","66.9","30.13","189","5.1","11.5","0.00","0.00"
"15:29:58","91","78.2","66.3","30.13","221","4.3","11.5","0.00","0.00"
"15:34:58","91","78.4","66.6","30.12","213","4.7","11.5","0.00","0.00"
"15:39:59","91","78","65.9","30.12","189","3.9","10.4","0.00","0.00"
"15:44:59","90.7","77.7","65.9","30.12","198","4.3","10.4","0.00","0.00"
"15:49:58","90.4","77.5","66","30.12","198","3.7","7","0.00","0.00"
"15:54:58","90.5","77.3","65.3","30.12","183","4.7","11.5","0.00","0.00"
"15:59:58","90.6","77.4","65.3","30.12","196","4.5","12","0.00","0.00"
"16:04:57","90.3","76.2","63.3","30.12","184","4.1","9.2","0.00","0.00"
"16:09:58","90.2","77.6","66.8","30.12","208","3.3","6","0.00","0.00"
"16:14:59","90.7","77.7","65.9","30.12","188","4.4","10.4","0.00","0.00"
"16:19:58","91","77.8","65.3","30.11","185","3.7","7","0.00","0.00"
"16:24:58","91.1","77.1","63.8","30.11","209","5.2","10.4","0.00","0.00"
"16:29:57","91","77.6","65","30.11","173","2.2","6","0.00","0.00"
"16:34:57","91.2","77.5","64.4","30.10","199","4","9.2","0.00","0.00"
"16:39:57","91.3","77.4","64.1","30.10","227","4.4","11.5","0.00","0.00"
"16:44:57","91.3","77.3","63.8","30.10","191","3.7","9","0.00","0.00"
"16:49:56","91.3","76.7","62.6","30.10","169","3.7","9.2","0.00","0.00"
"16:54:56","91.2","76.8","63","30.10","182","4","10","0.00","0.00"
"16:59:56","91.1","76.5","62.4","30.10","192","5.3","10.4","0.00","0.00"
"17:04:59","90.8","77","64","30.10","200","4.2","8","0.00","0.00"
"17:09:59","90.7","76.7","63.7","30.10","199","4.7","10.4","0.00","0.00"
"17:14:56","90.6","76.6","63.7","30.10","186","5.1","9.2","0.00","0.00"
"17:19:57","90.4","76.9","64.6","30.10","193","4.7","10.4","0.00","0.00"
"17:24:57","90.4","77.1","65.1","30.10","191","4","14","0.00","0.00"
"17:29:56","90.3","76.5","64","30.10","191","5.2","13.8","0.00","0.00"
"17:34:56","89.9","76","63.8","30.10","189","5.1","12","0.00","0.00"
"17:39:57","89.4","76.5","65.8","30.10","174","3.4","6.9","0.00","0.00"
"17:44:56","89.4","76.6","66.1","30.10","191","4.3","9.2","0.00","0.00"
"17:49:56","88.9","76.1","65.9","30.10","199","5.2","10.4","0.00","0.00"
"17:54:56","88.8","76.6","67.5","30.10","199","3.7","6","0.00","0.00"
"17:59:59","89.1","76.7","67.2","30.10","182","3.7","8.1","0.00","0.00"
"18:04:58","89.3","76.5","66.2","30.09","172","3.9","9.2","0.00","0.00"
"18:09:59","89.4","76.5","66","30.09","207","4.3","11.5","0.00","0.00"
"18:14:55","89.4","76.6","66.1","30.09","184","3.8","7","0.00","0.00"
"18:19:59","89.3","76.6","66.3","30.09","177","2.9","9","0.00","0.00"
"18:24:59","89.3","76.9","67","30.09","180","3.8","12","0.00","0.00"
"18:29:59","88.9","76.2","66.2","30.09","191","3.9","10.4","0.00","0.00"
"18:34:58","88.3","76.4","68","30.09","193","2.8","5","0.00","0.00"
"18:39:59","88","75.9","67.7","30.09","199","4.1","8.1","0.00","0.00"
"18:44:59","87.8","75.8","67.8","30.10","186","4.9","11.5","0.00","0.00"
"18:49:58","87.6","75.8","68.2","30.10","187","4.4","10.4","0.00","0.00"
"18:54:58","87.5","76.1","68.9","30.10","169","3.2","9.2","0.00","0.00"
"18:59:57","87.4","76.2","69.6","30.10","187","2.9","6","0.00","0.00"
"19:04:56","87.1","76.1","70","30.10","172","4.2","10.4","0.00","0.00"
"19:09:56","86.8","75.9","70.2","30.10","171","3.1","6","0.00","0.00"
"19:14:57","86.6","76","70.6","30.11","190","2.8","6","0.00","0.00"
"19:19:57","86.4","76","71.2","30.11","202","3.1","9.2","0.00","0.00"
"19:24:56","86.1","75.9","71.8","30.11","225","2.2","5","0.00","0.00"
"19:29:56","85.9","75.9","72.2","30.12","177","1.9","5","0.00","0.00"
"19:34:56","85.7","76","73","30.12","170","1","4","0.00","0.00"
"19:39:57","85.5","76","73.2","30.12","171","1.9","5","0.00","0.00"
"19:44:57","85.3","76","73.8","30.12","170","1.7","3.5","0.00","0.00"
"19:49:57","85","75.9","74.3","30.11","169","1.5","3.5","0.00","0.00"
"19:54:58","84.8","76","75","30.11","169","1.3","4","0.00","0.00"
"19:59:58","84.6","75.8","75","30.11","173","2.1","5","0.00","0.00"
"20:04:57","84.4","75.9","75.8","30.11","180","1.6","3.5","0.00","0.00"
"20:09:58","84.3","75.9","76","30.11","180","2.1","4","0.00","0.00"
"20:14:59","84.1","75.7","76","30.11","179","1.4","3.5","0.00","0.00"
"20:19:59","83.9","75.8","76.7","30.10","173","1.8","5","0.00","0.00"
"20:24:56","83.8","75.8","77","30.10","139","1.8","3.5","0.00","0.00"
"20:29:56","83.7","75.7","77","30.10","139","1.9","4","0.00","0.00"
"20:34:56","83.6","75.6","77","30.10","134","1.5","4","0.00","0.00"
"20:39:57","83.5","75.5","77","30.10","135","1.2","3.5","0.00","0.00"
"20:44:58","83.4","75.6","77.6","30.11","136","1.2","3.5","0.00","0.00"
"20:49:59","83.2","75.6","78","30.11","135","1","3.5","0.00","0.00"
"20:54:59","83","75.4","78","30.11","135","0.7","3","0.00","0.00"
"20:59:59","82.9","75.3","78","30.11","141","1.1","4","0.00","0.00"
"21:04:59","82.9","75.3","78","30.11","141","0.6","4","0.00","0.00"
"21:09:59","82.9","75.3","78.2","30.11","141","0.9","3.5","0.00","0.00"
"21:14:57","82.7","75.5","78.9","30.11","141","1","3.5","0.00","0.00"
"21:19:57","82.6","75.4","79","30.11","141","0.6","3.5","0.00","0.00"
"21:24:58","82.4","75.2","79","30.11","156","0.8","4","0.00","0.00"
"21:29:58","82.3","75.2","79.3","30.11","156","0.3","3.5","0.00","0.00"
"21:34:58","82.2","75.4","80","30.11","155","1","3.5","0.00","0.00"
"21:39:56","82.1","75.3","80","30.11","155","0.7","3.5","0.00","0.00"
"21:44:56","82","75.2","80","30.12","155","0.8","3.5","0.00","0.00"
"21:49:58","82","75.2","80","30.12","155","0.3","2.3","0.00","0.00"
"21:54:58","81.8","75.1","80.2","30.12","155","0.7","2.3","0.00","0.00"
"21:59:58","81.6","75.2","81","30.12","155","0.9","2.3","0.00","0.00"
"22:04:58","81.4","75","81","30.12","155","0.5","2.3","0.00","0.00"
"22:09:59","81.3","75.2","81.6","30.12","155","0.8","2.3","0.00","0.00"
"22:14:56","81.2","75.2","82","30.12","156","1.3","4","0.00","0.00"
"22:19:56","81.1","75.1","82","30.12","157","0.6","3","0.00","0.00"
"22:24:57","80.9","74.9","82","30.12","161","0.6","3.5","0.00","0.00"
"22:29:57","80.8","74.8","82","30.12","161","0.2","3","0.00","0.00"
"22:34:58","80.7","74.7","82","30.12","161","0.5","3.5","0.00","0.00"
"22:39:56","80.6","74.8","82.7","30.12","161","0.2","2.3","0.00","0.00"
"22:44:56","80.4","74.8","83","30.12","161","0.2","2.3","0.00","0.00"
"22:49:56","80.2","74.6","83","30.12","161","0.6","3.5","0.00","0.00"
"22:54:57","80.1","74.7","83.9","30.12","161","0.3","2.3","0.00","0.00"
"22:59:57","79.8","74.5","84","30.12","161","0.1","2.3","0.00","0.00"
"23:04:57","79.6","74.6","84.7","30.12","161","0","0","0.00","0.00"
"23:09:59","79.4","74.5","85","30.12","161","0","0","0.00","0.00"
"23:14:56","79.2","74.4","85.3","30.12","161","0.4","2.3","0.00","0.00"
"23:19:57","79","74.5","86","30.11","161","0","1.2","0.00","0.00"
"23:24:57","78.8","74.3","86","30.11","161","0","1.2","0.00","0.00"
"23:29:56","78.7","74.2","86.1","30.11","161","0","1.2","0.00","0.00"
"23:34:59","78.5","74.3","87","30.11","161","0","0","0.00","0.00"
"23:39:59","78.3","74.2","87.2","30.11","161","0","0","0.00","0.00"
"23:44:58","78.1","74.3","88","30.11","161","0","1.2","0.00","0.00"
"23:49:57","77.8","74","88","30.11","161","0","1.2","0.00","0.00"
"23:54:56","77.5","73.8","88.5","30.11","161","0","1.2","0.00","0.00"
